TimeCST,TemperatureF,Dew PointF,Humidity,Sea Level PressureIn,VisibilityMPH,Wind Direction,Wind SpeedMPH,Gust SpeedMPH,PrecipitationIn,Events,Conditions,WindDirDegrees,DateUTC
12:14 AM,12.2,3.2,67,30.19,10.0,East,6.9,-,N/A,,Clear,80,2013-02-22 06:14:00
12:35 AM,12.2,3.2,67,30.18,10.0,ENE,6.9,-,N/A,,Clear,70,2013-02-22 06:35:00
12:55 AM,10.4,1.4,67,30.18,10.0,ENE,6.9,-,N/A,,Clear,70,2013-02-22 06:55:00
1:14 AM,10.4,1.4,67,30.17,10.0,ENE,4.6,-,N/A,,Clear,70,2013-02-22 07:14:00
1:34 AM,10.4,1.4,67,30.16,10.0,ENE,5.8,-,N/A,,Clear,70,2013-02-22 07:34:00
1:55 AM,8.6,1.4,73,30.16,10.0,Calm,Calm,-,N/A,,Clear,0,2013-02-22 07:55:00
2:14 AM,6.8,1.4,79,30.15,10.0,North,3.5,-,N/A,,Clear,350,2013-02-22 08:14:00
2:35 AM,6.8,-0.4,72,30.15,10.0,North,3.5,-,N/A,,Clear,10,2013-02-22 08:35:00
2:55 AM,6.8,-0.4,72,30.15,10.0,NNE,5.8,-,N/A,,Clear,20,2013-02-22 08:55:00
3:14 AM,6.8,-0.4,72,30.14,10.0,NE,5.8,-,N/A,,Clear,50,2013-02-22 09:14:00
3:35 AM,10.4,-0.4,62,30.12,10.0,ENE,5.8,-,N/A,,Clear,70,2013-02-22 09:35:00
3:55 AM,8.6,-0.4,67,30.11,10.0,ENE,5.8,-,N/A,,Clear,70,2013-02-22 09:55:00
4:14 AM,8.6,-0.4,67,30.11,10.0,ENE,5.8,-,N/A,,Clear,70,2013-02-22 10:14:00
4:35 AM,8.6,-0.4,67,30.11,10.0,ENE,5.8,-,N/A,,Clear,70,2013-02-22 10:35:00
4:55 AM,8.6,-0.4,67,30.10,10.0,ENE,5.8,-,N/A,,Clear,70,2013-02-22 10:55:00
5:14 AM,8.6,1.4,73,30.10,10.0,East,6.9,-,N/A,,Clear,80,2013-02-22 11:14:00
5:35 AM,10.4,1.4,67,30.09,10.0,ENE,5.8,-,N/A,,Clear,70,2013-02-22 11:35:00
6:14 AM,10.4,3.2,73,30.09,10.0,ENE,6.9,-,N/A,,Clear,70,2013-02-22 12:14:00
6:54 AM,10.4,5.0,79,30.08,10.0,ENE,6.9,-,N/A,,Scattered Clouds,70,2013-02-22 12:54:00
7:14 AM,10.4,6.8,85,30.07,10.0,ENE,6.9,-,N/A,,Clear,70,2013-02-22 13:14:00
7:54 AM,10.4,6.8,85,30.07,10.0,NE,4.6,-,N/A,,Clear,40,2013-02-22 13:54:00
8:54 AM,10.4,6.8,85,30.07,10.0,Calm,Calm,-,N/A,,Clear,0,2013-02-22 14:54:00
9:35 AM,8.6,5.0,85,30.06,10.0,North,4.6,-,N/A,,Clear,360,2013-02-22 15:35:00
9:54 AM,10.4,6.8,85,30.05,10.0,NNE,3.5,-,N/A,,Clear,20,2013-02-22 15:54:00
10:14 AM,10.4,6.8,85,30.04,10.0,North,3.5,-,N/A,,Clear,10,2013-02-22 16:14:00
10:35 AM,12.2,8.6,85,30.04,10.0,NNE,3.5,-,N/A,,Clear,30,2013-02-22 16:35:00
10:54 AM,15.8,12.2,86,30.03,10.0,NE,3.5,-,N/A,,Clear,50,2013-02-22 16:54:00
11:15 AM,15.8,14.0,93,30.03,10.0,ENE,4.6,-,N/A,,Clear,60,2013-02-22 17:15:00
11:35 AM,17.6,14.0,86,30.02,10.0,NNE,3.5,-,N/A,,Clear,30,2013-02-22 17:35:00
11:54 AM,15.8,10.4,79,30.02,10.0,NNW,6.9,-,N/A,,Clear,340,2013-02-22 17:54:00
12:35 PM,15.8,12.2,86,30.01,10.0,NNW,6.9,-,N/A,,Clear,340,2013-02-22 18:35:00
12:54 PM,15.8,12.2,86,30.00,10.0,North,5.8,-,N/A,,Clear,350,2013-02-22 18:54:00
1:15 PM,17.6,12.2,79,29.99,10.0,NNW,6.9,-,N/A,,Clear,330,2013-02-22 19:15:00
1:34 PM,17.6,14.0,86,29.98,10.0,NNW,8.1,-,N/A,,Clear,330,2013-02-22 19:34:00
1:54 PM,17.6,14.0,86,29.98,10.0,NNW,9.2,-,N/A,,Clear,330,2013-02-22 19:54:00
2:15 PM,17.6,14.0,86,29.98,10.0,NNW,9.2,-,N/A,,Clear,340,2013-02-22 20:15:00
2:34 PM,17.6,14.0,86,29.98,10.0,NNW,8.1,-,N/A,,Clear,340,2013-02-22 20:34:00
5:34 PM,15.8,15.8,100,29.96,10.0,NNW,8.1,-,N/A,,Scattered Clouds,340,2013-02-22 23:34:00
5:55 PM,15.8,15.8,100,29.96,10.0,NNW,10.4,-,N/A,,Scattered Clouds,340,2013-02-22 23:55:00
6:15 PM,15.8,15.8,100,29.96,10.0,NNW,8.1,-,N/A,,Scattered Clouds,340,2013-02-23 00:15:00
6:34 PM,15.8,15.8,100,29.96,10.0,North,6.9,-,N/A,,Scattered Clouds,350,2013-02-23 00:34:00
6:55 PM,15.8,15.8,100,29.96,10.0,North,5.8,-,N/A,,Clear,360,2013-02-23 00:55:00
7:15 PM,15.8,15.8,100,29.95,10.0,North,6.9,-,N/A,Snow,Light Snow,360,2013-02-23 01:15:00
7:34 PM,15.8,14.0,93,29.95,5.0,North,5.8,-,N/A,Snow,Light Snow,360,2013-02-23 01:34:00
7:55 PM,15.8,12.2,86,29.95,5.0,NNW,4.6,-,N/A,Snow,Light Snow,340,2013-02-23 01:55:00
8:15 PM,14.0,12.2,93,29.95,5.0,North,6.9,-,N/A,Snow,Light Snow,350,2013-02-23 02:15:00
8:34 PM,12.2,12.2,100,29.94,7.0,North,5.8,-,N/A,Snow,Light Snow,350,2013-02-23 02:34:00
8:55 PM,10.4,10.4,100,29.94,7.0,NNW,4.6,-,N/A,Snow,Light Snow,340,2013-02-23 02:55:00
9:15 PM,10.4,8.6,92,29.94,10.0,North,3.5,-,N/A,Snow,Light Snow,360,2013-02-23 03:15:00
9:34 PM,10.4,10.4,100,29.93,10.0,Calm,Calm,-,N/A,,Clear,0,2013-02-23 03:34:00
9:55 PM,10.4,8.6,92,29.93,10.0,Calm,Calm,-,N/A,,Clear,0,2013-02-23 03:55:00
10:14 PM,10.4,8.6,92,29.93,10.0,Calm,Calm,-,N/A,,Clear,0,2013-02-23 04:14:00
10:34 PM,10.4,8.6,92,29.93,10.0,NW,3.5,-,N/A,,Clear,310,2013-02-23 04:34:00
10:55 PM,8.6,6.8,92,29.93,10.0,NW,5.8,-,N/A,,Clear,320,2013-02-23 04:55:00
11:14 PM,8.6,6.8,92,29.93,10.0,NNW,5.8,-,N/A,,Clear,340,2013-02-23 05:14:00
11:55 PM,12.2,10.4,92,29.92,10.0,NNW,5.8,-,N/A,,Clear,340,2013-02-23 05:55:00